Weather History for St. Francis, KS

Change the Weather History Date:

Wednesday, November 21, 2012

  Actual Average Record
Temperature  
Mean Temperature 50 °F -  
Max Temperature 73 °F 51 °F 56 °F (2014)
Min Temperature 27 °F 22 °F 15 °F (2013)
Degree Days  
Heating Degree Days 15    
Moisture  
Dew Point 16 °F    
Average Humidity 33    
Maximum Humidity 65    
Minimum Humidity 9    
Precipitation  
Precipitation 0.00 in - - ()
Sea Level Pressure  
Sea Level Pressure 29.92 in    
Wind  
Wind Speed 7 mph ()    
Max Wind Speed 13 mph    
Max Gust Speed 18 mph    
Visibility 10.0 miles    
Events      
Averages and records for this station are not official NWS values.
T = Trace of Precipitation, MM = Missing Value Source: Averaged Metar Reports

Daily Weather History Graph

Daily Weather History Graph

Search for Another Location

Airport:

Trip Planner

Search our weather history database for the weather conditions in past years. The results will help you decide how hot, cold, wet, or windy it might be!

Date:

Astronomy

Nov. 21, 2012 Rise Set
Actual Time 7:39 AM CST 5:26 PM CST
Civil Twilight 7:09 AM CST 5:56 PM CST
Nautical Twilight 6:36 AM CST 6:29 PM CST
Astronomical Twilight 6:04 AM CST 7:01 PM CST
Moon 1:43 PM CST (11/21) 1:01 AM CST (11/21)
Length of Visible Light 10h 46m
Length of Day
9h 47m
First Quarter, 62% of the Moon is Illuminated
Nov 21
First Quarter
Nov 28
Full
Dec 6
Last Quarter
Dec 13
New
Dec 19
First Quarter

Hourly Weather History & Observations

Time (CST) Temp. Windchill Dew Point Humidity Pressure Visibility Wind Dir Wind Speed Gust Speed Precip Events Conditions
12:15 AM 47.5 °F - 16.3 °F 29% 30.08 in 10.0 mi SW 11.5 mph 18.4 mph N/A   Clear
12:35 AM 48.6 °F - 17.2 °F 29% 30.08 in 10.0 mi SW 11.5 mph - N/A   Clear
12:55 AM 47.7 °F - 18.0 °F 31% 30.07 in 10.0 mi SSW 12.7 mph - N/A   Clear
1:15 AM 47.5 °F - 18.5 °F 32% 30.06 in 10.0 mi SSW 11.5 mph - N/A   Clear
1:35 AM 44.2 °F 38.8 °F 18.9 °F 36% 30.06 in 10.0 mi SW 10.4 mph - N/A   Clear
1:55 AM 41.4 °F 38.4 °F 19.6 °F 42% 30.06 in 10.0 mi WSW 4.6 mph - N/A   Clear
2:15 AM 37.0 °F 32.4 °F 19.8 °F 50% 30.05 in 10.0 mi South 5.8 mph - N/A   Clear
2:35 AM 39.0 °F 34.0 °F 20.3 °F 47% 30.05 in 10.0 mi SSW 6.9 mph - N/A   Clear
2:55 AM 36.1 °F 30.6 °F 19.9 °F 52% 30.04 in 10.0 mi South 6.9 mph - N/A   Clear
3:15 AM 34.3 °F 27.0 °F 20.1 °F 56% 30.03 in 10.0 mi SSW 9.2 mph - N/A   Clear
3:35 AM 36.7 °F 29.9 °F 20.3 °F 52% 30.03 in 10.0 mi SSW 9.2 mph - N/A   Clear
3:55 AM 35.2 °F 27.6 °F 20.3 °F 55% 30.03 in 10.0 mi SSW 10.4 mph - N/A   Clear
4:15 AM 34.2 °F 28.2 °F 19.8 °F 56% 30.02 in 10.0 mi SSW 6.9 mph - N/A   Clear
4:35 AM 33.8 °F 27.0 °F 19.4 °F 56% 30.01 in 10.0 mi SW 8.1 mph - N/A   Clear
4:55 AM 32.0 °F - 19.2 °F 59% 30.02 in 10.0 mi Calm Calm - N/A   Clear
5:15 AM 29.1 °F 23.0 °F 18.7 °F 65% 30.02 in 10.0 mi West 5.8 mph - N/A   Clear
5:55 AM 29.3 °F 23.2 °F 17.2 °F 61% 30.00 in 10.0 mi SW 5.8 mph - N/A   Clear
6:15 AM 28.8 °F 20.9 °F 17.1 °F 62% 30.00 in 10.0 mi WSW 8.1 mph - N/A   Clear
6:35 AM 30.2 °F 24.3 °F 17.1 °F 58% 30.01 in 10.0 mi WSW 5.8 mph - N/A   Clear
6:55 AM 28.6 °F 20.7 °F 16.5 °F 61% 30.00 in 10.0 mi WSW 8.1 mph - N/A   Clear
7:15 AM 27.5 °F 22.2 °F 16.3 °F 63% 30.00 in 10.0 mi WSW 4.6 mph - N/A   Clear
7:35 AM 29.8 °F 22.2 °F 16.5 °F 58% 30.00 in 10.0 mi South 8.1 mph - N/A   Clear
7:55 AM 32.7 °F 26.4 °F 16.0 °F 50% 30.00 in 10.0 mi SW 6.9 mph - N/A   Clear
8:15 AM 34.0 °F 27.2 °F 16.0 °F 48% 29.99 in 10.0 mi SW 8.1 mph - N/A   Clear
8:35 AM 35.4 °F 32.6 °F 16.9 °F 47% 29.99 in 10.0 mi SSW 3.5 mph - N/A   Clear
8:55 AM 37.8 °F 31.8 °F 17.4 °F 44% 30.00 in 10.0 mi SW 8.1 mph - N/A   Clear
9:15 AM 40.5 °F 34.1 °F 16.5 °F 38% 29.99 in 10.0 mi WSW 10.4 mph - N/A   Clear
9:35 AM 41.4 °F 38.4 °F 16.2 °F 36% 29.99 in 10.0 mi SW 4.6 mph - N/A   Clear
9:55 AM 44.8 °F 42.4 °F 16.0 °F 31% 29.99 in 10.0 mi SW 4.6 mph - N/A   Clear
10:15 AM 48.0 °F - 16.9 °F 29% 29.98 in 10.0 mi West 4.6 mph - N/A   Clear
10:55 AM 52.7 °F - 18.9 °F 26% 29.97 in 10.0 mi Calm Calm - N/A   Clear
11:15 AM 55.4 °F - 19.4 °F 25% 29.96 in 10.0 mi Calm Calm - N/A   Clear
11:35 AM 58.1 °F - 19.4 °F 22% 29.96 in 10.0 mi South 3.5 mph - N/A   Clear
11:55 AM 59.7 °F - 19.0 °F 21% 29.95 in 10.0 mi SSE 3.5 mph - N/A   Clear
12:15 PM 62.1 °F - 19.2 °F 19% 29.93 in 10.0 mi South 5.8 mph - N/A   Clear
12:35 PM 63.7 °F - 16.2 °F 16% 29.92 in 10.0 mi SW 3.5 mph - N/A   Clear
12:55 PM 64.6 °F - 16.0 °F 15% 29.91 in 10.0 mi SSE 4.6 mph - N/A   Clear
1:15 PM 67.3 °F - 14.7 °F 13% 29.90 in 10.0 mi West 5.8 mph - N/A   Clear
1:35 PM 68.2 °F - 13.8 °F 12% 29.89 in 10.0 mi West 8.1 mph - N/A   Clear
1:55 PM 69.3 °F - 14.9 °F 12% 29.88 in 10.0 mi WSW 4.6 mph - N/A   Clear
2:15 PM 70.3 °F - 14.0 °F 12% 29.87 in 10.0 mi South 5.8 mph - N/A   Clear
2:35 PM 71.6 °F - 12.4 °F 10% 29.86 in 10.0 mi SW 4.6 mph - N/A   Clear
2:55 PM 71.8 °F - 12.0 °F 10% 29.85 in 10.0 mi SW 3.5 mph - N/A   Clear
3:15 PM 72.7 °F - 12.0 °F 10% 29.84 in 10.0 mi South 4.6 mph - N/A   Clear
3:35 PM 73.4 °F - 11.3 °F 9% 29.84 in 10.0 mi South 6.9 mph - N/A   Clear
3:55 PM 73.2 °F - 11.3 °F 9% 29.83 in 10.0 mi SSW 6.9 mph - N/A   Clear
4:15 PM 72.9 °F - 11.5 °F 9% 29.83 in 10.0 mi South 6.9 mph - N/A   Clear
4:35 PM 71.8 °F - 11.7 °F 10% 29.83 in 10.0 mi South 5.8 mph - N/A   Clear
4:55 PM 68.2 °F - 13.6 °F 12% 29.83 in 10.0 mi South 5.8 mph - N/A   Clear
5:15 PM 63.5 °F - 16.2 °F 16% 29.82 in 7.0 mi SSE 8.1 mph - N/A   Clear
5:35 PM 60.8 °F - 18.3 °F 19% 29.82 in 10.0 mi SSE 10.4 mph - N/A   Clear
5:55 PM 59.0 °F - 16.9 °F 19% 29.82 in 10.0 mi South 10.4 mph - N/A   Clear
6:15 PM 55.9 °F - 16.7 °F 21% 29.82 in 10.0 mi South 9.2 mph - N/A   Clear
6:35 PM 53.2 °F - 17.4 °F 24% 29.83 in 10.0 mi South 8.1 mph - N/A   Clear
6:55 PM 52.9 °F - 16.0 °F 23% 29.83 in 10.0 mi South 9.2 mph - N/A   Clear
7:15 PM 49.8 °F - 15.8 °F 26% 29.83 in 10.0 mi SSW 5.8 mph - N/A   Clear
7:35 PM 50.5 °F - 14.9 °F 24% 29.83 in 10.0 mi WSW 5.8 mph - N/A   Clear
7:55 PM 50.2 °F - 14.9 °F 25% 29.83 in 10.0 mi SW 3.5 mph - N/A   Clear
8:15 PM 47.5 °F - 14.5 °F 27% 29.83 in 10.0 mi WSW 6.9 mph - N/A   Clear
8:35 PM 48.0 °F - 14.9 °F 27% 29.82 in 10.0 mi SW 6.9 mph - N/A   Clear
8:55 PM 45.0 °F 42.6 °F 14.9 °F 30% 29.82 in 10.0 mi SW 4.6 mph - N/A   Clear
9:15 PM 45.1 °F 40.3 °F 15.3 °F 30% 29.82 in 10.0 mi SW 9.2 mph - N/A   Clear
9:35 PM 45.5 °F 40.3 °F 14.9 °F 29% 29.82 in 10.0 mi SSW 10.4 mph - N/A   Clear
9:55 PM 44.8 °F 39.9 °F 14.9 °F 30% 29.81 in 10.0 mi SW 9.2 mph - N/A   Clear
10:15 PM 42.4 °F 38.1 °F 14.5 °F 32% 29.81 in 10.0 mi SW 6.9 mph - N/A   Clear
10:35 PM 40.8 °F 37.8 °F 15.3 °F 35% 29.81 in 10.0 mi WSW 4.6 mph - N/A   Clear
10:55 PM 41.0 °F 39.0 °F 14.9 °F 35% 29.81 in 10.0 mi WSW 3.5 mph - N/A   Clear
11:15 PM 39.9 °F 35.1 °F 14.9 °F 36% 29.79 in 10.0 mi WSW 6.9 mph - N/A   Clear
11:35 PM 40.3 °F - 14.5 °F 35% 29.81 in 10.0 mi Calm Calm - N/A   Clear
11:55 PM 38.5 °F 34.1 °F 14.7 °F 38% 29.80 in 10.0 mi SSW 5.8 mph - N/A   Clear